Regional Weather Roundup
Issued by NWS Jackson, KY

Home | Current Version | Previous Version | Graphics & Text | Print | Product List | Glossary On
Versions: 1 2 3 4 5 6 7 8 9 10 11 12 13 14 15 16 17 18 19 20 21 22 23 24 25 26 27 28 29 30 31 32 33 34 35 36 37 38 39 40 41 42 43 44 45 46 47 48 49 50
000
ASUS43 KJKL 221210
RWRJKL

EAST KENTUCKY HOURLY WEATHER ROUNDUP
NATIONAL WEATHER SERVICE JACKSON KY
800 AM EDT SUN OCT 22 2017

NOTE: "FAIR" INDICATES FEW OR NO CLOUDS BELOW 12,000 FEET WITH
NO SIGNIFICANT WEATHER AND/OR OBSTRUCTIONS TO VISIBILITY.

* THESE REPORTS ARE NOT UNDER NWS QUALITY CONTROL AND MAY NOT
  REPORT WEATHER SUCH AS PRECIPITATION AND FOG.

KYZ079-080-083-085-087-088-110-112-115-119-120-221300
...EASTERN KENTUCKY...

CITY           SKY/WX    TMP DP  RH WIND       PRES   REMARKS
JACKSON        CLEAR     53  47  79 E5        30.26S
6HR MIN TEMP:  52; 6HR MAX TEMP:  60;

LONDON         CLEAR     47  43  86 CALM      30.25R
6HR MIN TEMP:  45; 6HR MAX TEMP:  50;

SOMERSET*      CLEAR     48  48 100 CALM      30.24S
MONTICELLO*    PTCLDY    56  49  77 VRB7      30.24R
6HR MIN TEMP:  50; 6HR MAX TEMP:  61;

WILLIAMSBURG*  SUNNY     50  48  93 SE3       30.25R
MIDDLESBORO*   FOG       44  44 100 CALM      30.28S VSB<1/4
6HR MIN TEMP:  43; 6HR MAX TEMP:  50;

HARLAN APT*    SUNNY     50  46  87 CALM      30.28R
PIKE CO APT*     N/A     58  46  65 E5        30.28R
BIG SANDY APT* SUNNY     53  48  83 E5        30.28S
6HR MIN TEMP:  52; 6HR MAX TEMP:  64;

MOREHEAD APT*  SUNNY     54  46  76 SE6       30.25S
$$

KYZ035-036-041-042-044-050-067-078-099-221300
...CENTRAL KENTUCKY...

CITY           SKY/WX    TMP DP  RH WIND       PRES   REMARKS
MT STERLING*   CLEAR     55  48  76 S7        30.24S
FLEMING/MASON* CLEAR     55  49  78 S7        30.23S
DANVILLE*      CLEAR     52  46  82 S7        30.22R
LEXINGTON      CLEAR     56  48  74 SE9       30.20S
6HR MIN TEMP:  56; 6HR MAX TEMP:  61;

FRANKFORT      PTCLDY    58  47  66 SE8       30.18R
6HR MIN TEMP:  52; 6HR MAX TEMP:  58;

LOUISVILLE     CLOUDY    57  49  74 E5        30.15R
6HR MIN TEMP:  57; 6HR MAX TEMP:  61;

LEBANON*         N/A     61  48  63 SE14      30.18R
GLASGOW*       CLOUDY    64  49  59 S8        30.16R
BOWLING GREEN  PTCLDY    55  53  93 CALM      30.14S
6HR MIN TEMP:  52; 6HR MAX TEMP:  58;

$$

KYZ091>093-OHZ055-061-077-WVZ005-015-034-035-042-221300
...SOUTHERN OHIO/WEST VIRGINIA...

CITY           SKY/WX    TMP DP  RH WIND       PRES   REMARKS
COVINGTON      PTCLDY    56  49  77 S7        30.17S
COLUMBUS       CLOUDY    54  50  86 SE5       30.22S
DAYTON         MOCLDY    56  50  80 S8        30.18F
WILMINGTON     CLEAR     56  49  77 S7        30.21R
HUNTINGTON     CLEAR     50  48  93 CALM      30.26R
CHARLESTON     PTCLDY    47  45  93 CALM      30.28S
PINEVILLE*     CLEAR     45  43  94 MISG      30.36S
BECKLEY        CLEAR     56  47  71 SE5G16    30.33S
BLUEFIELD      CLEAR     58  45  62 S8        30.35R
LOGAN CO APT*    N/A     55  48  76 CALM      30.29R
$$

VAZ002-007-008-TNZ017-027-036-066-071-221300
...SOUTHWEST VIRGINIA/EAST TENNESSEE...

CITY           SKY/WX    TMP DP  RH WIND       PRES   REMARKS
WISE*          CLEAR     59  46  63 S6        30.31S
JONESVILLE*      N/A     45  45 100 CALM      30.31R
ABINGDON*      CLEAR     54  49  83 E9        30.32S
BRISTOL        PTCLDY    43  43 100 CALM      30.30S
MORRISTOWN*    SUNNY     50  46  87 CALM      30.27R
SEVIERVILLE*   SUNNY     43  43 100 CALM      30.28R
KNOXVILLE      MOCLDY    49  49 100 CALM      30.26R
LAFOLLETTE*    FOG       45  45 100 CALM      30.30S VSB 3/4
OAK RIDGE      MOCLDY    47  47 100 CALM      30.28R FOG
CROSSVILLE     MOCLDY    59  48  67 S7        30.24S
NASHVILLE      MOCLDY    64  53  67 SE13      30.14S
$$

...KEY TO REMARKS...
VSB - VISIBILITY IN MILES
WCI - WIND CHILL INDEX
HX  - HEAT INDEX

$$



USA.gov is the U.S. government's official web portal to all federal, state and local government web resources and services.